Orbital Elements at Epoch 2459200.5 (2020-Dec-17.0) TDB
Reference: JPL 24 (heliocentric ecliptic J2000)
Element | Value | Uncertainty (1-sigma) | Units |
e | .1343112301303414 | 3.6701e-08 | |
a | 2.379904484346632 | 8.3872e-09 | au |
q | 2.06025658546132 | 8.5413e-08 | au |
i | 7.395007650894142 | 3.1855e-06 | deg |
node | 115.2054527597593 | 3.2096e-05 | deg |
peri | 226.2871189105202 | 3.4658e-05 | deg |
M | 47.57490561592997 | 1.2751e-05 | deg |
tp | 2459023.279828517086 (2020-Jun-22.77982852) | 4.7394e-05 | TDB |
period | 1341.027604949921 3.67 | 7.089e-06 1.941e-08 | d yr |
n | .2684508496851142 | 1.4191e-09 | deg/d |
Q | 2.699552383231945 | 9.5137e-09 | au |
|
| | Orbit Determination Parameters
Additional Information
|